Location: Dehesa de la Cepeda
(40.6574°N, 4.3013°W)
Time: 04:32:48
(UTC+00:00)

Meteor 2-16 Rocket - Pass Details

Date: 05 July 2020
Orbit: 942 x 956 km, 82.6° (Epoch: 11 August)

Event Time Altitude Azimuth Distance (km) Brightness Sun altitude
Rises 20:31:44 0° 183° (S) 3,595 7.1 -7.1°
Reaches altitude 10° 20:34:13 10° 182° (S) 2,653 6.4 -7.5°
Maximum altitude 20:40:17 82° 95° (E) 957 4.4 -8.4°
Drops below altitude 10° 20:46:23 10° 10° (N) 2,668 7.2 -9.3°
Sets 20:48:52 0° 9° (N) 3,617 8.0 -9.6°
